Voltar ao catálogo

STARLINK-32018

AtivoComunicaçõesVLEO
NORAD 60105·PAYLOAD·🇺🇸 United States

Lançado Jun 23, 2024 de Cape Canaveral Space Force Station

Loading…

Próximas Passagens (próximas 24 horas)

TLE

AtualizadoSource: CelesTrak SupGP

Época: Sep 14, 2026, 22:13 UTC

1 60105C 24117Q   26257.92618056  .00030684  00000+0  90639-3 0  2573
2 60105  53.1571 235.5500 0001450  96.5035 346.4377 15.34380841    16

Acompanhe STARLINK-32018 em tempo real com AllMySat

Download on the App Store